Theta_e
296 295 295 295 296 297 297 297 298 298 298 298 299 299 299 300 300 300 302 300 301 301 302 303 306 304 305 307 307 307 307 308 309 308 308 310 310 309 305 304 305 304 307 309 311 311 310
296 295 295 295 295 296 296 297 297 298 298 298 299 299 299 300 301 301 301 301 301 302 303 306 307 308 307 305 305 305 305 307 307 307 308 308 309 309 307 305 304 306 306 306 308 309 309
295 295 295 295 295 296 296 297 297 297 298 298 299 299 299 300 301 301 300 301 304 304 305 307 308 308 306 304 304 305 305 304 304 305 306 308 309 308 309 306 309 307 306 306 307 307 306
295 295 295 296 295 295 296 296 297 297 298 298 298 298 299 299 300 300 301 302 305 306 306 306 307 311 310 304 304 304 304 304 303 304 306 306 309 308 308 309 308 306 306 306 308 307 307
295 295 296 296 296 296 296 296 297 297 297 297 298 298 298 298 300 300 302 304 307 307 307 305 306 307 305 302 304 303 301 301 301 303 304 306 308 308 308 306 305 305 308 306 307 307 308
295 295 295 295 296 296 296 296 297 296 297 297 297 297 297 299 300 302 303 305 306 305 305 305 304 305 302 302 303 302 300 300 304 303 305 308 308 304 303 305 308 308 305 305 305 305 306
295 294 294 295 295 296 296 296 296 296 296 297 297 297 298 299 302 303 303 306 305 306 304 303 301 302 301 301 302 301 300 300 301 304 304 306 306 305 306 306 308 308 308 308 306 305 306
296 295 294 294 295 295 296 296 296 296 297 297 297 298 298 299 300 302 303 307 307 306 307 301 300 301 300 300 302 301 299 298 301 301 302 304 307 307 306 306 307 307 307 307 308 307 306
297 296 295 294 294 295 295 295 296 296 297 297 298 298 298 300 300 302 302 304 308 308 306 303 300 300 299 300 300 300 298 298 301 303 303 303 305 306 308 308 308 307 308 308 308 308 306
297 297 295 294 294 294 295 295 296 296 296 297 299 298 297 300 301 301 302 303 307 308 304 299 299 300 299 299 299 300 298 298 299 302 299 300 303 302 307 308 308 309 308 309 309 308 308
295 297 295 294 294 294 294 295 295 296 296 297 299 300 298 300 300 300 301 303 309 309 302 298 298 299 298 297 298 299 298 298 297 298 299 300 301 301 303 307 309 309 308 308 309 308 308
294 297 296 294 294 294 294 295 295 296 296 299 300 299 299 300 299 299 300 308 304 297 298 299 298 298 298 297 297 298 297 297 298 297 297 297 300 301 306 306 309 309 308 308 309 308 307
294 297 297 295 294 294 294 294 295 295 296 299 301 298 300 299 299 299 300 306 297 292 298 297 297 298 296 296 296 297 296 295 295 296 296 297 299 303 304 303 304 308 309 308 309 309 309
294 297 297 295 294 294 294 294 295 295 296 297 300 300 299 299 299 299 300 295 291 297 297 297 297 297 296 296 296 296 296 294 295 294 295 296 297 299 302 301 304 305 309 310 312 312 310
294 297 296 295 294 293 293 294 294 295 296 297 300 298 299 299 299 299 299 291 295 296 296 296 297 297 296 295 295 295 295 294 294 294 294 296 297 298 300 301 304 309 310 307 310 309 308
294 296 295 294 294 293 293 293 294 295 296 297 300 298 298 299 298 299 296 296 296 297 297 296 296 297 296 295 295 294 295 295 294 294 293 295 297 299 299 302 303 302 304 310 311 311 311
295 296 295 294 294 293 293 293 294 295 295 297 299 298 298 299 298 298 293 296 297 297 296 296 296 296 295 295 295 295 296 296 294 294 293 294 297 299 298 300 302 302 302 303 307 308 310
296 295 295 294 294 293 293 293 294 294 295 296 298 295 297 298 296 294 293 298 297 297 296 296 296 296 295 295 295 296 296 296 295 294 293 294 296 297 298 300 299 300 301 302 305 308 307
296 295 294 294 293 293 293 293 293 294 295 296 298 297 296 297 291 289 296 296 297 296 296 296 296 296 295 295 296 296 296 296 295 294 293 294 295 296 295 298 298 297 299 301 302 305 307
295 295 294 294 293 293 293 293 293 294 295 295 297 289 294 295 295 294 295 295 296 297 296 295 295 296 295 295 295 296 296 296 295 295 296 294 293 292 294 295 296 297 298 298 300 306 306
295 294 294 294 293 293 293 293 293 293 294 295 295 294 294 288 292 293 294 294 296 296 295 295 295 296 295 294 295 295 294 294 293 294 294 293 294 294 295 294 295 296 297 300 305 302 306
294 294 293 294 294 293 293 293 293 293 294 294 294 294 294 294 294 293 293 294 295 294 294 295 296 294 293 293 293 293 293 292 292 293 293 292 294 294 295 295 295 296 298 299 303 304 306
294 294 294 294 294 293 293 293 293 293 293 293 294 294 293 293 293 292 293 293 295 294 294 295 294 293 293 294 292 292 292 292 292 293 293 293 293 294 295 295 295 296 297 300 301 302 302
294 294 294 294 294 294 293 293 293 293 293 293 293 293 292 291 292 293 293 293 293 294 294 294 293 293 293 292 292 292 292 292 292 293 293 293 293 294 294 295 287 297 295 297 299 296 296
294 294 294 294 294 294 293 293 293 293 293 293 293 292 293 293 292 293 293 293 293 292 292 293 293 292 292 292 292 292 291 292 293 293 291 291 294 294 291 296 295 295 294 294 294 297 295
294 294 294 294 294 294 293 293 293 293 293 293 293 292 292 291 289 292 293 292 291 292 292 291 291 292 291 292 291 286 289 292 292 290 290 290 291 294 294 294 294 293 292 293 294 298 294
294 294 294 294 294 293 293 293 293 293 293 293 293 293 292 292 292 293 291 292 292 291 290 290 289 291 289 289 281 285 289 289 290 289 289 289 290 293 294 291 295 292 292 293 296 293 293
294 294 294 294 293 293 294 294 293 293 293 293 293 293 292 291 291 292 292 291 290 291 290 291 287 288 289 284 287 288 289 289 287 286 287 288 291 292 292 292 292 291 292 292 292 292 293
294 294 294 294 294 294 294 294 294 294 293 292 292 291 291 290 290 290 290 290 291 290 289 289 289 289 289 289 286 281 285 285 286 284 287 288 289 289 290 290 290 290 291 291 291 291 291
Wind_Speed
23 24 24 25 24 24 24 25 26 26 26 26 27 28 27 25 24 23 22 24 21 16 18 15 18 11 13 15 16 25 24 23 19 22 19 13 8 5 4 5 6 8 3 13 27 29 24
23 24 24 24 25 25 25 26 25 26 26 26 28 29 28 27 27 25 24 25 20 17 14 14 14 22 19 20 25 24 28 25 28 25 19 13 8 15 14 8 7 8 12 17 22 33 21
23 24 24 24 25 25 25 26 26 27 27 27 28 29 29 28 28 28 26 25 14 11 12 13 9 16 28 26 28 25 30 31 30 27 19 16 12 13 7 7 13 11 12 15 20 9 8
24 24 24 24 25 25 25 26 27 27 27 27 28 30 29 28 28 30 26 17 11 11 19 21 12 6 5 33 27 34 35 35 31 25 22 19 16 16 11 13 11 7 5 8 12 13 7
24 24 24 24 26 25 25 25 26 27 28 28 27 29 29 27 25 29 26 11 12 8 8 22 18 8 9 32 31 30 40 47 33 26 25 16 13 17 9 4 5 6 14 15 13 2 5
24 23 24 24 25 25 26 26 27 28 28 28 25 28 29 28 24 28 27 6 18 21 4 7 27 4 27 35 20 36 46 48 18 29 16 6 4 3 4 7 17 16 7 6 4 5 7
24 24 24 25 25 25 26 27 28 28 28 28 25 26 26 25 22 27 29 4 2 5 25 16 19 12 24 30 16 40 53 35 28 8 4 6 3 14 22 11 20 15 22 18 5 7 8
25 26 26 26 26 26 27 28 29 29 28 27 24 25 26 24 12 24 27 19 10 3 6 18 23 12 28 29 18 37 51 26 11 6 7 4 14 15 17 10 14 13 19 24 20 10 10
25 26 27 27 26 27 28 28 29 29 28 26 21 24 25 24 8 23 23 16 5 1 1 9 24 22 32 25 13 27 46 28 5 6 9 9 17 16 14 17 17 18 19 20 20 8 14
24 26 27 27 27 28 28 28 28 29 28 24 19 25 26 25 11 27 20 21 3 3 3 10 14 15 29 18 13 27 37 22 7 12 15 11 9 21 15 18 17 19 18 20 15 9 16
24 25 27 27 28 28 28 28 28 28 28 23 19 22 25 23 19 27 24 18 1 4 4 17 9 17 21 23 19 23 31 19 13 17 4 8 26 23 18 19 18 22 17 16 15 12 15
23 25 26 27 28 29 28 28 28 27 27 20 17 21 23 25 22 27 20 4 4 6 2 6 11 15 14 22 14 22 22 28 9 13 15 19 23 10 10 20 15 22 17 17 17 13 12
23 25 26 27 28 29 29 29 28 27 26 17 12 20 18 20 28 26 14 1 5 7 5 9 10 10 11 15 9 16 12 18 18 19 27 27 14 14 9 21 25 10 10 9 9 9 8
23 24 26 26 28 29 30 30 29 27 27 19 13 17 16 18 19 21 5 6 10 4 4 7 9 6 8 17 8 17 5 9 12 18 14 14 14 14 14 16 13 28 18 5 16 10 12
23 24 26 27 27 28 29 30 30 28 27 21 12 16 22 25 21 12 7 7 2 4 6 7 11 4 5 8 5 9 7 7 7 17 10 8 11 19 18 29 11 4 7 4 9 1 4
22 23 24 26 27 28 29 30 31 29 27 20 11 7 28 17 21 20 8 7 3 5 6 5 7 5 9 11 9 11 7 1 9 17 18 5 13 9 23 22 18 13 9 2 3 9 4
21 22 23 25 27 28 28 29 29 30 28 17 9 6 27 11 16 22 5 4 2 8 13 5 6 5 8 10 7 8 5 8 10 14 12 5 4 16 15 12 20 14 11 8 5 4 4
20 21 22 24 26 27 28 28 29 29 27 20 17 6 25 8 15 6 3 5 7 11 13 7 5 6 9 11 6 5 8 4 19 20 10 3 5 13 16 4 11 11 11 9 5 7 3
19 19 20 22 25 26 27 27 27 26 26 18 6 4 23 21 4 4 6 7 7 11 7 7 5 5 11 8 7 9 6 19 22 18 7 7 4 8 12 4 4 15 18 13 12 3 4
18 18 18 21 23 25 27 27 27 25 24 14 4 3 8 17 15 2 3 5 7 12 5 11 4 9 11 10 8 10 12 9 28 26 23 10 2 3 6 10 13 15 21 16 7 3 7
17 16 17 19 20 23 25 27 27 24 23 6 8 4 6 4 9 9 4 5 8 9 7 9 4 10 11 9 15 6 17 21 24 20 10 2 4 8 6 15 10 15 17 14 6 4 5
15 15 15 16 18 20 22 24 26 23 19 27 6 5 6 4 5 6 5 5 7 11 10 4 8 15 12 8 7 21 21 19 15 17 10 2 4 7 9 11 10 14 12 14 8 8 7
13 13 13 15 16 17 19 21 23 22 21 12 11 8 3 5 6 4 3 6 8 15 9 11 17 12 8 8 26 32 34 34 27 17 11 3 3 3 5 10 14 3 10 13 9 14 11
12 13 12 13 14 15 16 18 19 18 17 15 12 8 5 3 3 3 12 11 10 14 12 20 18 7 19 34 30 22 19 24 21 17 13 4 3 2 5 7 3 1 11 12 13 22 21
11 12 11 11 13 14 14 14 16 15 14 12 11 7 3 3 4 13 13 9 16 20 15 17 8 25 25 15 4 6 5 4 7 8 14 14 7 4 1 2 8 4 11 9 9 7 19
11 11 11 11 11 13 12 12 13 14 13 10 9 9 5 4 4 8 10 14 7 5 3 14 21 16 14 3 3 3 3 8 8 15 15 18 9 6 6 3 2 10 16 29 14 3 20
11 10 11 11 11 11 11 12 12 12 12 13 8 8 7 5 9 8 10 6 10 14 5 7 14 7 13 3 1 2 4 6 5 11 18 15 10 5 6 4 5 13 20 25 4 6 17
11 10 10 10 10 11 13 13 12 12 14 13 12 5 7 6 21 7 11 22 22 14 2 8 8 6 4 4 2 3 2 4 7 10 11 6 6 5 6 4 1 25 12 7 3 10 9
12 10 10 11 12 13 13 13 13 13 15 14 12 8 12 12 20 23 9 7 3 2 16 7 5 11 4 3 3 2 2 2 7 4 8 4 6 5 4 6 15 13 11 6 9 15 7
Wind_Direction
42 42 39 36 33 31 29 26 23 19 16 12 10 8 3 360 358 1 354 348 348 341 345 350 3 38 78 61 12 2 360 358 11 14 359 333 280 256 234 256 288 242 324 273 260 264 260
43 41 37 34 32 30 27 23 20 17 14 10 8 7 2 357 357 4 357 342 339 339 8 15 24 77 76 51 6 5 357 346 351 347 347 334 294 289 270 245 242 289 296 270 259 266 265
40 39 36 32 30 27 24 19 16 14 12 9 7 5 1 355 356 3 357 349 11 18 25 30 56 93 48 21 8 353 354 351 342 337 338 320 320 275 290 310 296 287 287 282 257 244 231
33 35 32 29 27 24 21 17 13 11 9 8 6 4 1 355 353 358 358 3 28 55 58 39 37 90 74 12 2 353 348 343 344 340 327 305 288 275 254 257 292 301 257 254 265 217 216
29 29 29 25 22 20 16 14 11 8 7 7 5 3 0 356 352 356 2 16 44 43 71 35 32 78 34 354 2 360 354 349 343 334 323 317 256 242 213 163 311 216 250 235 272 198 174
25 25 24 22 19 16 14 11 8 7 4 4 2 2 1 358 358 359 7 62 74 48 57 38 24 29 8 354 355 352 354 349 341 339 348 0 292 238 215 180 232 243 275 287 247 250 207
23 21 20 18 16 13 11 9 7 5 2 1 360 1 2 360 9 9 9 83 357 62 47 52 9 53 356 352 358 1 358 358 343 352 22 306 243 227 238 245 258 268 273 268 280 245 209
20 19 19 16 13 11 9 9 6 3 1 360 358 358 1 359 5 12 11 48 40 350 327 37 20 18 5 351 3 8 357 5 340 336 320 320 243 252 266 243 251 246 256 263 272 260 243
18 18 17 14 12 10 8 7 4 1 1 360 359 356 358 2 359 7 11 22 4 321 161 8 16 14 5 354 27 8 8 350 324 347 352 299 273 299 276 264 252 248 244 254 255 262 260
15 17 16 14 12 9 8 6 4 360 359 358 0 4 359 4 9 357 2 351 278 154 88 355 2 4 358 359 16 3 10 351 349 312 330 286 320 332 303 252 243 247 245 256 253 215 244
15 15 14 12 10 7 7 6 4 0 359 358 359 356 359 5 1 2 345 338 180 147 55 324 355 348 4 14 319 354 6 1 332 323 314 300 302 301 308 279 247 251 238 245 241 230 232
11 11 12 12 9 7 6 6 4 1 359 3 7 359 356 1 358 352 344 10 99 43 8 343 344 341 9 359 334 339 17 15 332 312 329 313 295 289 309 330 293 247 242 235 237 227 227
9 10 10 11 8 5 5 6 6 1 359 3 10 12 3 6 353 341 348 301 38 75 341 341 336 345 9 350 325 351 9 10 20 350 352 336 340 337 358 345 329 271 231 217 210 198 218
8 10 9 9 8 7 4 4 5 3 357 1 354 0 12 12 353 342 354 63 65 331 18 308 324 326 15 357 328 339 0 10 25 16 324 342 322 9 330 312 278 283 241 211 201 187 219
6 8 8 8 8 8 5 3 5 6 360 2 13 28 35 22 12 3 68 53 141 330 311 317 326 340 349 348 314 344 345 7 4 17 358 308 295 307 315 304 324 294 210 298 170 184 106
6 7 8 8 8 11 9 6 4 7 5 3 22 28 24 27 36 61 66 94 81 1 320 335 359 11 353 341 349 345 347 23 4 4 345 281 296 315 335 351 6 21 4 338 315 183 173
7 7 8 8 9 11 11 9 7 6 10 14 44 59 10 26 49 54 69 91 102 19 19 356 326 322 350 332 320 317 327 307 10 351 345 294 284 310 346 27 16 10 20 338 276 34 148
6 8 7 9 11 11 13 12 11 8 7 20 45 52 11 33 49 30 24 359 38 2 21 348 10 356 353 327 311 308 314 327 339 345 332 297 288 315 319 190 3 20 5 355 1 5 358
6 7 6 9 10 11 13 16 15 12 7 11 60 55 34 54 67 352 335 355 29 22 12 6 15 10 358 340 328 320 331 334 345 338 321 339 336 323 336 305 260 341 354 3 334 214 42
3 5 6 8 10 10 12 15 16 17 14 25 46 28 20 46 45 84 1 353 359 3 14 343 319 13 348 327 317 290 333 324 328 322 326 346 241 175 278 281 299 312 328 336 346 316 347
0 2 5 7 8 9 9 13 19 24 21 48 50 54 8 340 359 0 21 14 347 7 351 349 348 0 337 316 315 331 323 316 315 306 316 357 267 279 264 293 300 292 324 329 320 308 295
355 0 2 4 6 8 9 11 17 28 32 47 66 19 358 328 324 353 7 7 353 343 332 327 332 325 312 294 335 314 311 302 293 305 318 287 277 303 299 302 303 313 343 333 14 3 314
355 359 0 360 2 8 8 9 15 26 35 47 43 33 9 331 344 13 352 340 327 333 305 324 319 321 308 315 307 291 281 279 271 280 294 249 264 305 294 328 314 338 352 344 64 32 1
344 347 348 354 356 2 6 6 11 23 30 41 31 18 31 304 325 290 323 325 320 319 300 305 313 301 312 318 314 308 284 269 268 275 218 272 253 229 286 307 0 287 23 16 65 36 17
332 338 343 344 349 354 357 2 4 17 24 25 22 30 354 289 262 302 338 318 315 306 288 297 326 319 327 330 317 331 314 344 317 352 53 15 340 295 179 276 277 17 2 340 350 24 16
325 328 336 333 338 346 349 355 355 358 3 4 11 1 348 310 253 312 319 319 314 318 298 309 312 329 354 296 356 350 309 5 351 329 349 344 352 312 298 274 273 353 334 321 298 119 8
312 314 322 324 330 337 345 346 350 350 349 342 348 343 347 283 288 305 307 301 316 328 286 316 343 338 353 351 303 242 305 324 317 351 334 338 331 327 271 229 104 336 331 324 67 332 341
303 301 310 317 321 329 331 334 336 336 341 333 333 325 318 288 301 312 312 308 312 309 292 354 356 358 329 6 28 351 356 348 343 330 324 315 315 4 336 345 38 352 2 30 284 321 321
296 294 299 305 311 317 324 325 329 330 336 330 332 310 298 289 292 316 358 30 294 341 320 314 290 296 298 323 16 342 290 301 323 314 332 303 346 322 294 307 310 287 294 315 338 318 315